Location: Unspecified
(0.0000°N, 0.0000°E)
Time: 01:17:57
(UTC+00:00)

S-56A Canister/Altair - All Passes

Search period start: 26 May 2019 00:00
Search period end: 05 June 2019 00:00
Orbit: 633 x 2499 km, 38.9° (Epoch: 24 May)

Date Brightness Start Highest point End Pass type
(mag) Time Alt. Az. Time Alt. Az. Time Alt. Az.
26 May - 06:59:23 10° NNW 07:11:07 42° NE 07:24:55 10° ESE daylight
26 May - 09:03:43 10° NW 09:17:55 73° SW 09:32:40 10° SE daylight
26 May - 11:14:06 10° W 11:25:22 25° SW 11:35:46 10° SSE daylight
26 May - 19:55:49 10° SSW 20:00:46 42° SE 20:04:59 10° ENE visible
26 May - 22:01:47 10° WNW 22:04:21 15° NW 22:06:58 10° N night (unlit)
27 May - 06:26:49 10° NNW 06:37:37 36° NE 06:50:41 10° ESE daylight
27 May - 08:30:27 10° NW 08:44:15 81° SW 08:59:23 10° SE daylight
27 May - 10:39:37 10° W 10:51:42 29° SW 11:03:09 10° SSE daylight
27 May - 19:23:09 10° SSW 19:28:11 33° SE 19:32:18 10° ENE visible
27 May - 21:28:25 10° W 21:31:46 20° NW 21:35:02 10° N night (unlit)
28 May - 05:54:25 10° NNW 06:04:12 31° NE 06:16:14 10° E daylight
28 May - 07:57:21 10° NW 08:10:36 90° SW 08:25:56 10° SE daylight
28 May - 10:05:25 10° W 10:17:59 33° SW 10:30:23 10° SSE daylight
28 May - 18:50:27 10° SSW 18:55:31 27° SE 18:59:34 10° E visible
28 May - 20:55:11 10° W 20:59:14 26° NW 21:02:57 10° NNE visible
29 May - 05:22:11 10° N 05:30:51 26° NE 05:41:32 10° E visible
29 May - 07:24:22 10° NW 07:37:01 82° NE 07:52:21 10° SE daylight
29 May - 09:31:28 10° W 09:44:16 38° SW 09:57:27 10° SSE daylight
29 May - 11:50:11 10° SW 11:53:21 11° SSW 11:56:25 10° SSW daylight
29 May - 18:17:42 10° SSW 18:22:47 23° SSE 18:26:48 10° E visible
29 May - 20:22:00 10° WSW 20:26:44 35° NW 20:30:48 10° NNE visible
30 May - 04:50:11 10° N 04:57:33 21° NE 05:06:33 10° E visible
30 May - 06:51:32 10° NW 07:03:29 73° NE 07:18:37 10° SE daylight
30 May - 08:57:45 10° WNW 09:10:33 43° SW 09:24:23 10° SSE daylight
30 May - 11:13:19 10° SW 11:19:28 13° SSW 11:25:25 10° S daylight
30 May - 17:44:55 10° SSW 17:49:58 20° SSE 17:53:57 10° E daylight
30 May - 19:48:51 10° WSW 19:54:15 49° NW 19:58:36 10° NNE visible
31 May - 04:18:32 10° N 04:24:19 16° NE 04:31:10 10° ENE visible
31 May - 06:18:49 10° NW 06:30:02 64° NE 06:44:46 10° ESE daylight
31 May - 08:24:14 10° WNW 08:36:51 48° SW 08:51:12 10° SSE daylight
31 May - 10:37:41 10° WSW 10:45:36 16° SSW 10:53:21 10° S daylight
31 May - 17:12:06 10° SSW 17:17:04 18° SSE 17:21:02 10° ESE daylight
31 May - 19:15:43 10° SW 19:21:45 66° NW 19:26:20 10° NE visible
01 Jun - 03:47:39 10° NNE 03:51:08 12° NE 03:54:59 10° ENE visible
01 Jun - 05:46:15 10° NNW 05:56:41 55° NE 06:10:46 10° ESE daylight
01 Jun - 07:50:54 10° WNW 08:03:11 54° SW 08:17:53 10° SE daylight
01 Jun - 10:02:39 10° WSW 10:11:44 18° SSW 10:20:52 10° S daylight
01 Jun - 16:39:13 10° S 16:44:05 16° SSE 16:48:01 10° ESE daylight
01 Jun - 18:42:32 10° SW 18:49:13 86° NW 18:54:02 10° NE visible
02 Jun - 05:13:48 10° NNW 05:23:26 47° NE 05:36:39 10° ESE visible
02 Jun - 07:17:44 10° WNW 07:29:34 61° SW 07:44:28 10° SE daylight
02 Jun - 09:28:03 10° WSW 09:37:53 21° SSW 09:48:06 10° SSE daylight
02 Jun - 16:06:18 10° S 16:11:00 15° SSE 16:14:53 10° ESE daylight
02 Jun - 18:09:20 10° SW 18:16:37 75° SE 18:21:40 10° NE daylight
02 Jun - 20:19:29 10° NW 20:19:59 10° NW 20:20:30 10° NW visible
03 Jun - 04:41:29 10° NNW 04:50:16 39° NE 05:02:22 10° ESE visible
03 Jun - 06:44:43 10° WNW 06:56:01 68° SW 07:10:55 10° SE daylight
03 Jun - 08:53:47 10° W 09:04:03 24° SSW 09:15:10 10° SSE daylight
03 Jun - 15:33:21 10° S 15:37:51 14° SSE 15:41:38 10° SE daylight
03 Jun - 17:36:07 10° SW 17:43:56 61° SE 17:49:15 10° ENE daylight
03 Jun - 19:44:17 10° W 19:47:24 15° NW 19:50:09 10° N visible
04 Jun - 04:09:18 10° NNW 04:17:11 32° NE 04:27:57 10° ESE visible
04 Jun - 06:11:51 10° NW 06:22:32 76° SW 06:37:17 10° SE daylight
04 Jun - 08:19:49 10° W 08:30:16 27° SSW 08:42:05 10° SSE daylight
04 Jun - 15:00:23 10° S 15:04:34 13° SSE 15:08:11 10° SE daylight
04 Jun - 17:02:51 10° SW 17:11:10 51° SE 17:16:46 10° ENE daylight
04 Jun - 19:10:15 10° W 19:14:50 21° NW 19:18:35 10° N visible
